STARLINK-11241 [DTC] (60936 NORAD) Tracking and Keplerian Element Data

This shows tracking and keplerian element data for the satellite.

Feedback or suggestion? Click here.




ElementValue
Catalog60936
NameSTARLINK-11241 [DTC]
Epoch Orbit779
Epoch Day286.48056163
Epoch Year2024
RAAN351.444
Inclination53.1564
Eccentricity0.0001194
Argument of Perigee82.1469
Mean Anonmoly277.9685
Mean Motion15.69707589
Decay Rate6.975E-05
L11 60936U 24155N 24286.48056163 .00006975 00000+0 62391-4 0 9997
L22 60936 53.1564 351.4440 0001194 82.1469 277.9685 15.69707589 7790



Live tracking and technical data element details for STARLINK-11241 [DTC] (NORAD 60936). STARLINK-11241 [DTC] can be tracked NOW for your location showing map with azimuth and elevation plus other details from your city location.







IsCatalogInMostPopularTable: catalog: 60936, numindb: 12
Update: records affected: 1



GetName: 60936 STARLINK-11241 [DTC]

Hit Count: updated at: Wed, 04 Dec 2024 19:25:45 GMT